23-05-2022, 00:00:00,    260,    0.0,   11.5,   0.00,   0.00, 1004.8,   72.5, -999.0
23-05-2022, 00:00:11,    260,    0.0,   11.5,   0.00,   0.00, 1004.8,   72.5, -999.0
23-05-2022, 00:00:20,    260,    0.0,   11.6,   0.00,   0.00, 1004.8,   72.5, -999.0
23-05-2022, 00:00:30,    261,    0.0,   11.6,   0.00,   0.00, 1004.8,   72.5, -999.0
23-05-2022, 00:00:40,    260,    0.0,   11.5,   0.00,   0.00, 1004.8,   72.6, -999.0
23-05-2022, 00:00:50,    261,    0.0,   11.6,   0.00,   0.00, 1004.8,   72.4, -999.0
23-05-2022, 00:01:00,    260,    0.0,   11.5,   0.00,   0.00, 1004.8,   72.5, -999.0
23-05-2022, 00:01:10,    260,    0.0,   11.6,   0.00,   0.00, 1004.8,   72.5, -999.0
23-05-2022, 00:01:20,    260,    0.0,   11.6,   0.00,   0.00, 1004.8,   72.5, -999.0
23-05-2022, 00:01:30,    260,    0.0,   11.5,   0.00,   0.00, 1004.8,   72.5, -999.0
23-05-2022, 00:01:40,    260,    0.0,   11.5,   0.00,   0.00, 1004.8,   72.5, -999.0
23-05-2022, 00:01:50,    260,    0.0,   11.5,   0.00,   0.00, 1004.8,   72.5, -999.0
23-05-2022, 00:01:59,    261,    0.0,   11.5,   0.00,   0.00, 1004.8,   72.6, -999.0
23-05-2022, 00:02:10,    261,    0.0,   11.6,   0.00,   0.00, 1004.8,   72.6, -999.0
23-05-2022, 00:02:20,    260,    0.0,   11.5,   0.00,   0.00, 1004.8,   72.5, -999.0
23-05-2022, 00:02:29,    260,    0.0,   11.5,   0.00,   0.00, 1004.8,   72.6, -999.0
23-05-2022, 00:02:39,    260,    0.0,   11.5,   0.00,   0.00, 1004.8,   72.6, -999.0
23-05-2022, 00:02:50,    260,    0.0,   11.5,   0.00,   0.00, 1004.8,   72.5, -999.0
23-05-2022, 00:02:59,    260,    0.0,   11.5,   0.00,   0.00, 1004.8,   72.5, -999.0
23-05-2022, 00:03:09,    260,    0.0,   11.5,   0.00,   0.00, 1004.7,   72.6, -999.0
23-05-2022, 00:03:19,    260,    0.0,   11.5,   0.00,   0.00, 1004.8,   72.6, -999.0
23-05-2022, 00:03:29,    261,    0.0,   11.5,   0.00,   0.00, 1004.7,   72.7, -999.0
23-05-2022, 00:03:39,    260,    0.0,   11.4,   0.00,   0.00, 1004.7,   72.7, -999.0
23-05-2022, 00:03:49,    260,    0.0,   11.4,   0.00,   0.00, 1004.7,   72.7, -999.0
23-05-2022, 00:03:59,    260,    0.0,   11.4,   0.00,   0.00, 1004.7,   72.6, -999.0
23-05-2022, 00:04:09,    260,    0.0,   11.5,   0.00,   0.00, 1004.7,   72.7, -999.0
23-05-2022, 00:04:19,    260,    0.0,   11.4,   0.00,   0.00, 1004.7,   72.6, -999.0
23-05-2022, 00:04:29,    260,    0.0,   11.5,   0.00,   0.00, 1004.8,   72.6, -999.0
23-05-2022, 00:04:39,    260,    0.0,   11.5,   0.00,   0.00, 1004.7,   72.6, -999.0
23-05-2022, 00:04:49,    260,    0.0,   11.5,   0.00,   0.00, 1004.7,   72.6, -999.0
23-05-2022, 00:04:59,    260,    0.0,   11.5,   0.00,   0.00, 1004.7,   72.6, -999.0
23-05-2022, 00:05:08,    260,    0.0,   11.4,   0.00,   0.00, 1004.7,   72.7, -999.0
23-05-2022, 00:05:19,    260,    0.0,   11.4,   0.00,   0.00, 1004.7,   72.6, -999.0
23-05-2022, 00:05:29,    260,    0.0,   11.4,   0.00,   0.00, 1004.7,   72.7, -999.0
23-05-2022, 00:05:38,    260,    0.0,   11.4,   0.00,   0.00, 1004.8,   72.8, -999.0
23-05-2022, 00:05:49,    260,    0.0,   11.4,   0.00,   0.00, 1004.7,   72.7, -999.0
23-05-2022, 00:05:58,    261,    0.0,   11.4,   0.00,   0.00, 1004.7,   72.8, -999.0
23-05-2022, 00:06:08,    260,    0.0,   11.4,   0.00,   0.00, 1004.7,   72.9, -999.0
23-05-2022, 00:06:18,    261,    0.0,   11.4,   0.00,   0.00, 1004.8,   72.9, -999.0
23-05-2022, 00:06:28,    260,    0.0,   11.4,   0.00,   0.00, 1004.7,   73.0, -999.0
23-05-2022, 00:06:38,    260,    0.0,   11.5,   0.00,   0.00, 1004.8,   73.0, -999.0
23-05-2022, 00:06:48,    260,    0.0,   11.4,   0.00,   0.00, 1004.7,   72.9, -999.0
23-05-2022, 00:06:58,    260,    0.0,   11.4,   0.00,   0.00, 1004.7,   73.0, -999.0
23-05-2022, 00:07:08,    261,    0.0,   11.4,   0.00,   0.00, 1004.7,   73.0, -999.0
23-05-2022, 00:07:18,    260,    0.0,   11.4,   0.00,   0.00, 1004.7,   73.0, -999.0
23-05-2022, 00:07:28,    260,    0.0,   11.4,   0.00,   0.00, 1004.7,   72.9, -999.0
23-05-2022, 00:07:38,    260,    0.0,   11.4,   0.00,   0.00, 1004.7,   73.0, -999.0
23-05-2022, 00:07:48,    260,    0.0,   11.4,   0.00,   0.00, 1004.7,   73.0, -999.0
23-05-2022, 00:07:58,    260,    0.0,   11.5,   0.00,   0.00, 1004.7,   73.1, -999.0
23-05-2022, 00:08:07,    260,    0.0,   11.5,   0.00,   0.00, 1004.7,   73.1, -999.0
23-05-2022, 00:08:18,    260,    0.0,   11.4,   0.00,   0.00, 1004.7,   73.2, -999.0
23-05-2022, 00:08:28,    260,    0.0,   11.4,   0.00,   0.00, 1004.7,   73.2, -999.0
23-05-2022, 00:08:37,    261,    0.0,   11.4,   0.00,   0.00, 1004.7,   73.1, -999.0
23-05-2022, 00:08:47,    260,    0.0,   11.4,   0.00,   0.00, 1004.7,   73.2, -999.0
23-05-2022, 00:08:58,    260,    0.0,   11.4,   0.00,   0.00, 1004.7,   73.2, -999.0
23-05-2022, 00:09:07,    261,    0.0,   11.4,   0.00,   0.00, 1004.7,   73.1, -999.0
23-05-2022, 00:09:17,    261,    0.0,   11.4,   0.00,   0.00, 1004.7,   73.1, -999.0
23-05-2022, 00:09:27,    260,    0.0,   11.4,   0.00,   0.00, 1004.7,   73.1, -999.0
23-05-2022, 00:09:37,    260,    0.0,   11.5,   0.00,   0.00, 1004.7,   73.2, -999.0
23-05-2022, 00:09:47,    260,    0.0,   11.5,   0.00,   0.00, 1004.7,   73.2, -999.0
23-05-2022, 00:09:57,    260,    0.0,   11.4,   0.00,   0.00, 1004.7,   73.1, -999.0
23-05-2022, 00:10:07,    260,    0.0,   11.4,   0.00,   0.00, 1004.6,   73.1, -999.0
23-05-2022, 00:10:17,    260,    0.0,   11.4,   0.00,   0.00, 1004.7,   73.2, -999.0
23-05-2022, 00:10:27,    260,    0.0,   11.4,   0.00,   0.00, 1004.7,   73.1, -999.0
23-05-2022, 00:10:37,    260,    0.0,   11.4,   0.00,   0.00, 1004.6,   73.3, -999.0
23-05-2022, 00:10:47,    260,    0.0,   11.3,   0.00,   0.00, 1004.6,   73.3, -999.0
23-05-2022, 00:10:57,    260,    0.0,   11.4,   0.00,   0.00, 1004.7,   73.2, -999.0
23-05-2022, 00:11:07,    260,    0.0,   11.4,   0.00,   0.00, 1004.7,   73.4, -999.0
23-05-2022, 00:11:16,    260,    0.0,   11.4,   0.00,   0.00, 1004.6,   73.3, -999.0
23-05-2022, 00:11:27,    261,    0.0,   11.3,   0.00,   0.00, 1004.6,   73.3, -999.0
23-05-2022, 00:11:37,    261,    0.0,   11.4,   0.00,   0.00, 1004.6,   73.4, -999.0
23-05-2022, 00:11:46,    261,    0.0,   11.3,   0.00,   0.00, 1004.6,   73.4, -999.0
23-05-2022, 00:11:56,    261,    0.0,   11.3,   0.00,   0.00, 1004.7,   73.5, -999.0
23-05-2022, 00:12:06,    261,    0.0,   11.3,   0.00,   0.00, 1004.6,   73.4, -999.0
23-05-2022, 00:12:16,    261,    0.0,   11.3,   0.00,   0.00, 1004.7,   73.4, -999.0
23-05-2022, 00:12:26,    261,    0.0,   11.4,   0.00,   0.00, 1004.7,   73.4, -999.0
23-05-2022, 00:12:36,    261,    0.0,   11.3,   0.00,   0.00, 1004.7,   73.5, -999.0
23-05-2022, 00:12:46,    262,    0.0,   11.4,   0.00,   0.00, 1004.7,   73.5, -999.0
23-05-2022, 00:12:56,    262,    0.0,   11.4,   0.00,   0.00, 1004.7,   73.6, -999.0
23-05-2022, 00:13:06,    262,    0.0,   11.4,   0.00,   0.00, 1004.7,   73.5, -999.0
23-05-2022, 00:13:16,    262,    0.0,   11.4,   0.00,   0.00, 1004.7,   73.6, -999.0
23-05-2022, 00:13:26,    280,    0.0,   11.4,   0.00,   0.00, 1004.7,   73.5, -999.0
23-05-2022, 00:13:36,    283,    1.0,   11.5,   0.00,   0.00, 1004.8,   73.8, -999.0
23-05-2022, 00:13:46,    307,    0.6,   11.5,   0.00,   0.00, 1004.8,   74.0, -999.0
23-05-2022, 00:13:56,    268,    0.1,   11.4,   0.00,   0.00, 1004.8,   73.8, -999.0
23-05-2022, 00:14:06,    269,    0.0,   11.5,   0.00,   0.00, 1004.7,   73.7, -999.0
23-05-2022, 00:14:16,    269,    0.0,   11.5,   0.00,   0.00, 1004.7,   73.5, -999.0
23-05-2022, 00:14:25,    269,    0.0,   11.5,   0.00,   0.00, 1004.7,   73.4, -999.0
23-05-2022, 00:14:36,    269,    0.0,   11.5,   0.00,   0.00, 1004.7,   73.5, -999.0
23-05-2022, 00:14:46,    268,    0.0,   11.5,   0.00,   0.00, 1004.7,   73.5, -999.0
23-05-2022, 00:14:55,    268,    0.0,   11.5,   0.00,   0.00, 1004.7,   73.4, -999.0
23-05-2022, 00:15:06,    268,    0.0,   11.5,   0.00,   0.00, 1004.7,   73.4, -999.0
23-05-2022, 00:15:15,    268,    0.0,   11.5,   0.00,   0.00, 1004.7,   73.4, -999.0
23-05-2022, 00:15:25,    268,    0.0,   11.5,   0.00,   0.00, 1004.7,   73.3, -999.0
23-05-2022, 00:15:35,    267,    0.0,   11.4,   0.00,   0.00, 1004.7,   73.3, -999.0
23-05-2022, 00:15:45,    268,    0.0,   11.5,   0.00,   0.00, 1004.7,   73.4, -999.0
23-05-2022, 00:15:55,    268,    0.0,   11.5,   0.00,   0.00, 1004.7,   73.4, -999.0
23-05-2022, 00:16:05,    268,    0.0,   11.5,   0.00,   0.00, 1004.6,   73.4, -999.0
23-05-2022, 00:16:15,    281,    0.0,   11.5,   0.00,   0.00, 1004.7,   73.3, -999.0
23-05-2022, 00:16:25,    285,    0.1,   11.5,   0.00,   0.00, 1004.7,   73.6, -999.0
23-05-2022, 00:16:35,    285,    0.0,   11.6,   0.00,   0.00, 1004.7,   73.5, -999.0
23-05-2022, 00:16:45,    285,    0.0,   11.5,   0.00,   0.00, 1004.6,   73.5, -999.0
23-05-2022, 00:16:55,    285,    0.0,   11.5,   0.00,   0.00, 1004.6,   73.2, -999.0
23-05-2022, 00:17:05,    285,    0.1,   11.5,   0.00,   0.00, 1004.7,   73.4, -999.0
23-05-2022, 00:17:15,    285,    0.0,   11.5,   0.00,   0.00, 1004.7,   73.2, -999.0
23-05-2022, 00:17:25,    285,    0.0,   11.5,   0.00,   0.00, 1004.6,   73.2, -999.0
23-05-2022, 00:17:35,    285,    0.0,   11.5,   0.00,   0.00, 1004.6,   73.3, -999.0
23-05-2022, 00:17:45,    285,    0.0,   11.5,   0.00,   0.00, 1004.6,   73.4, -999.0
23-05-2022, 00:17:54,    285,    0.0,   11.4,   0.00,   0.00, 1004.6,   73.4, -999.0
23-05-2022, 00:18:04,    285,    0.0,   11.5,   0.00,   0.00, 1004.6,   73.4, -999.0
23-05-2022, 00:18:15,    285,    0.0,   11.4,   0.00,   0.00, 1004.6,   73.4, -999.0
23-05-2022, 00:18:24,    285,    0.0,   11.5,   0.00,   0.00, 1004.6,   73.3, -999.0
23-05-2022, 00:18:34,    285,    0.0,   11.5,   0.00,   0.00, 1004.5,   73.3, -999.0
23-05-2022, 00:18:44,    286,    0.0,   11.5,   0.00,   0.00, 1004.5,   73.2, -999.0
23-05-2022, 00:18:54,    285,    0.0,   11.4,   0.00,   0.00, 1004.6,   73.3, -999.0
23-05-2022, 00:19:04,    285,    0.0,   11.5,   0.00,   0.00, 1004.5,   73.2, -999.0
23-05-2022, 00:19:14,    285,    0.0,   11.4,   0.00,   0.00, 1004.5,   73.3, -999.0
23-05-2022, 00:19:24,    285,    0.0,   11.5,   0.00,   0.00, 1004.5,   73.3, -999.0
23-05-2022, 00:19:34,    285,    0.0,   11.4,   0.00,   0.00, 1004.6,   73.2, -999.0
23-05-2022, 00:19:44,    285,    0.0,   11.4,   0.00,   0.00, 1004.5,   73.3, -999.0
23-05-2022, 00:19:54,    285,    0.0,   11.4,   0.00,   0.00, 1004.5,   73.5, -999.0
23-05-2022, 00:20:04,    285,    0.0,   11.4,   0.00,   0.00, 1004.5,   73.4, -999.0
23-05-2022, 00:20:14,    285,    0.0,   11.4,   0.00,   0.00, 1004.5,   73.2, -999.0
23-05-2022, 00:20:24,    285,    0.0,   11.4,   0.00,   0.00, 1004.5,   73.4, -999.0
23-05-2022, 00:20:33,    285,    0.0,   11.4,   0.00,   0.00, 1004.6,   73.6, -999.0
23-05-2022, 00:20:44,    285,    0.2,   11.4,   0.00,   0.00, 1004.6,   73.8, -999.0
23-05-2022, 00:20:54,    285,    0.0,   11.5,   0.00,   0.00, 1004.5,   73.7, -999.0
23-05-2022, 00:21:03,    285,    0.0,   11.5,   0.00,   0.00, 1004.5,   73.7, -999.0
23-05-2022, 00:21:13,    285,    0.0,   11.4,   0.00,   0.00, 1004.5,   73.6, -999.0
23-05-2022, 00:21:24,    285,    0.0,   11.4,   0.00,   0.00, 1004.5,   73.7, -999.0
23-05-2022, 00:21:33,    285,    0.0,   11.4,   0.00,   0.00, 1004.5,   73.4, -999.0
23-05-2022, 00:21:43,    285,    0.0,   11.4,   0.00,   0.00, 1004.5,   73.6, -999.0
23-05-2022, 00:21:53,    285,    0.0,   11.4,   0.00,   0.00, 1004.5,   73.5, -999.0
23-05-2022, 00:22:03,    285,    0.0,   11.4,   0.00,   0.00, 1004.5,   73.5, -999.0
23-05-2022, 00:22:13,    285,    0.0,   11.3,   0.00,   0.00, 1004.5,   73.5, -999.0
23-05-2022, 00:22:23,    285,    0.0,   11.4,   0.00,   0.00, 1004.5,   73.5, -999.0
23-05-2022, 00:22:33,    285,    0.0,   11.4,   0.00,   0.00, 1004.5,   73.4, -999.0
23-05-2022, 00:22:43,    285,    0.0,   11.3,   0.00,   0.00, 1004.5,   73.5, -999.0
23-05-2022, 00:22:53,    285,    0.0,   11.4,   0.00,   0.00, 1004.5,   73.5, -999.0
23-05-2022, 00:23:03,    285,    0.0,   11.4,   0.00,   0.00, 1004.5,   73.5, -999.0
23-05-2022, 00:23:13,    285,    0.0,   11.3,   0.00,   0.00, 1004.5,   73.7, -999.0
23-05-2022, 00:23:23,    285,    0.0,   11.4,   0.00,   0.00, 1004.5,   73.5, -999.0
23-05-2022, 00:23:33,    285,    0.0,   11.4,   0.00,   0.00, 1004.5,   73.6, -999.0
23-05-2022, 00:23:42,    285,    0.0,   11.3,   0.00,   0.00, 1004.5,   73.5, -999.0
23-05-2022, 00:23:53,    285,    0.0,   11.3,   0.00,   0.00, 1004.5,   73.6, -999.0
23-05-2022, 00:24:03,    285,    0.0,   11.3,   0.00,   0.00, 1004.5,   73.7, -999.0
23-05-2022, 00:24:12,    285,    0.0,   11.4,   0.00,   0.00, 1004.5,   73.5, -999.0
23-05-2022, 00:24:22,    285,    0.0,   11.4,   0.00,   0.00, 1004.5,   73.5, -999.0
23-05-2022, 00:24:32,    285,    0.0,   11.4,   0.00,   0.00, 1004.5,   73.8, -999.0
23-05-2022, 00:24:42,    285,    0.0,   11.3,   0.00,   0.00, 1004.5,   73.7, -999.0
23-05-2022, 00:24:52,    285,    0.0,   11.4,   0.00,   0.00, 1004.5,   73.7, -999.0
23-05-2022, 00:25:02,    285,    0.0,   11.4,   0.00,   0.00, 1004.4,   73.7, -999.0
23-05-2022, 00:25:12,    285,    0.0,   11.4,   0.00,   0.00, 1004.5,   73.8, -999.0
23-05-2022, 00:25:22,    285,    0.0,   11.4,   0.00,   0.00, 1004.5,   73.8, -999.0
23-05-2022, 00:25:32,    285,    0.0,   11.4,   0.00,   0.00, 1004.4,   73.8, -999.0
23-05-2022, 00:25:42,    285,    0.0,   11.3,   0.00,   0.00, 1004.4,   73.7, -999.0
23-05-2022, 00:25:52,    285,    0.0,   11.4,   0.00,   0.00, 1004.4,   73.7, -999.0
23-05-2022, 00:26:02,    285,    0.0,   11.4,   0.00,   0.00, 1004.4,   73.7, -999.0
23-05-2022, 00:26:12,    285,    0.0,   11.4,   0.00,   0.00, 1004.4,   73.8, -999.0
23-05-2022, 00:26:22,    285,    0.0,   11.4,   0.00,   0.00, 1004.4,   73.7, -999.0
23-05-2022, 00:26:32,    285,    0.0,   11.4,   0.00,   0.00, 1004.4,   73.7, -999.0
23-05-2022, 00:26:42,    285,    0.0,   11.4,   0.00,   0.00, 1004.5,   73.6, -999.0
23-05-2022, 00:26:51,    285,    0.0,   11.4,   0.00,   0.00, 1004.5,   73.7, -999.0
23-05-2022, 00:27:02,    284,    0.0,   11.4,   0.00,   0.00, 1004.5,   73.6, -999.0
23-05-2022, 00:27:12,    285,    0.0,   11.4,   0.00,   0.00, 1004.4,   73.6, -999.0
23-05-2022, 00:27:21,    282,    0.0,   11.4,   0.00,   0.00, 1004.4,   73.8, -999.0
23-05-2022, 00:27:31,    285,    0.0,   11.4,   0.00,   0.00, 1004.5,   73.7, -999.0
23-05-2022, 00:27:41,    285,    0.0,   11.4,   0.00,   0.00, 1004.4,   73.8, -999.0
23-05-2022, 00:27:51,    285,    0.0,   11.3,   0.00,   0.00, 1004.4,   73.6, -999.0
23-05-2022, 00:28:01,    285,    0.0,   11.3,   0.00,   0.00, 1004.4,   73.8, -999.0
23-05-2022, 00:28:11,    285,    0.0,   11.4,   0.00,   0.00, 1004.4,   73.7, -999.0
23-05-2022, 00:28:21,    285,    0.0,   11.3,   0.00,   0.00, 1004.4,   73.7, -999.0
23-05-2022, 00:28:31,    284,    0.0,   11.4,   0.00,   0.00, 1004.4,   73.8, -999.0
23-05-2022, 00:28:41,    285,    0.0,   11.3,   0.00,   0.00, 1004.4,   73.8, -999.0
23-05-2022, 00:28:51,    285,    0.0,   11.4,   0.00,   0.00, 1004.4,   73.9, -999.0
23-05-2022, 00:29:01,    285,    0.0,   11.4,   0.00,   0.00, 1004.4,   73.8, -999.0
23-05-2022, 00:29:11,    285,    0.0,   11.3,   0.00,   0.00, 1004.4,   74.0, -999.0
23-05-2022, 00:29:21,    285,    0.0,   11.4,   0.00,   0.00, 1004.4,   73.9, -999.0
23-05-2022, 00:29:31,    285,    0.0,   11.4,   0.00,   0.00, 1004.4,   74.1, -999.0
23-05-2022, 00:29:41,    285,    0.0,   11.4,   0.00,   0.00, 1004.4,   74.1, -999.0
23-05-2022, 00:29:51,    285,    0.0,   11.4,   0.00,   0.00, 1004.4,   74.1, -999.0
23-05-2022, 00:30:00,    285,    0.0,   11.4,   0.00,   0.00, 1004.4,   74.1, -999.0
23-05-2022, 00:30:11,    285,    0.0,   11.4,   0.00,   0.00, 1004.4,   74.0, -999.0
23-05-2022, 00:30:20,    285,    0.0,   11.5,   0.00,   0.00, 1004.4,   74.0, -999.0
23-05-2022, 00:30:30,    285,    0.0,   11.5,   0.00,   0.00, 1004.4,   74.1, -999.0
23-05-2022, 00:30:40,    285,    0.0,   11.4,   0.00,   0.00, 1004.4,   74.1, -999.0
23-05-2022, 00:30:50,    285,    0.0,   11.5,   0.00,   0.00, 1004.4,   74.0, -999.0
23-05-2022, 00:31:00,    285,    0.0,   11.4,   0.00,   0.00, 1004.4,   73.9, -999.0
23-05-2022, 00:31:10,    285,    0.0,   11.3,   0.00,   0.00, 1004.4,   73.7, -999.0
23-05-2022, 00:31:20,    285,    0.0,   11.3,   0.00,   0.00, 1004.4,   73.8, -999.0
23-05-2022, 00:31:30,    285,    0.0,   11.4,   0.00,   0.00, 1004.4,   73.7, -999.0
23-05-2022, 00:31:40,    285,    0.0,   11.4,   0.00,   0.00, 1004.4,   73.8, -999.0
23-05-2022, 00:31:50,    285,    0.0,   11.4,   0.00,   0.00, 1004.4,   73.8, -999.0
23-05-2022, 00:32:00,    285,    0.0,   11.4,   0.00,   0.00, 1004.4,   73.7, -999.0
23-05-2022, 00:32:10,    286,    0.0,   11.3,   0.00,   0.00, 1004.4,   73.8, -999.0
23-05-2022, 00:32:20,    285,    0.0,   11.3,   0.00,   0.00, 1004.4,   73.9, -999.0
23-05-2022, 00:32:30,    285,    0.0,   11.3,   0.00,   0.00, 1004.4,   74.0, -999.0
23-05-2022, 00:32:40,    285,    0.0,   11.4,   0.00,   0.00, 1004.4,   74.0, -999.0
23-05-2022, 00:32:50,    285,    0.0,   11.4,   0.00,   0.00, 1004.4,   74.0, -999.0
23-05-2022, 00:33:00,    285,    0.0,   11.4,   0.00,   0.00, 1004.4,   74.0, -999.0
23-05-2022, 00:33:09,    285,    0.0,   11.4,   0.00,   0.00, 1004.4,   74.1, -999.0
23-05-2022, 00:33:20,    285,    0.0,   11.4,   0.00,   0.00, 1004.4,   74.0, -999.0
23-05-2022, 00:33:29,    285,    0.0,   11.3,   0.00,   0.00, 1004.4,   73.9, -999.0
23-05-2022, 00:33:39,    285,    0.0,   11.3,   0.00,   0.00, 1004.4,   73.9, -999.0
23-05-2022, 00:33:49,    285,    0.0,   11.3,   0.00,   0.00, 1004.4,   73.9, -999.0
23-05-2022, 00:33:59,    285,    0.0,   11.4,   0.00,   0.00, 1004.3,   74.1, -999.0
23-05-2022, 00:34:09,    285,    0.0,   11.4,   0.00,   0.00, 1004.4,   74.2, -999.0
23-05-2022, 00:34:19,    285,    0.0,   11.4,   0.00,   0.00, 1004.3,   74.2, -999.0
23-05-2022, 00:34:29,    285,    0.0,   11.4,   0.00,   0.00, 1004.4,   74.2, -999.0
23-05-2022, 00:34:39,    285,    0.0,   11.4,   0.00,   0.00, 1004.4,   74.2, -999.0
23-05-2022, 00:34:49,    285,    0.0,   11.4,   0.00,   0.00, 1004.4,   74.3, -999.0
23-05-2022, 00:34:59,    285,    0.0,   11.3,   0.00,   0.00, 1004.4,   74.1, -999.0
23-05-2022, 00:35:09,    285,    0.0,   11.4,   0.00,   0.00, 1004.4,   74.1, -999.0
23-05-2022, 00:35:19,    284,    0.0,   11.4,   0.00,   0.00, 1004.4,   74.1, -999.0
23-05-2022, 00:35:29,    285,    0.0,   11.4,   0.00,   0.00, 1004.4,   74.1, -999.0
23-05-2022, 00:35:39,    286,    0.0,   11.4,   0.00,   0.00, 1004.4,   74.1, -999.0
23-05-2022, 00:35:49,    285,    0.0,   11.4,   0.00,   0.00, 1004.3,   74.1, -999.0
23-05-2022, 00:35:59,    285,    0.0,   11.4,   0.00,   0.00, 1004.4,   74.2, -999.0
23-05-2022, 00:36:08,    285,    0.0,   11.4,   0.00,   0.00, 1004.3,   74.1, -999.0
23-05-2022, 00:36:18,    285,    0.0,   11.4,   0.00,   0.00, 1004.3,   74.2, -999.0
23-05-2022, 00:36:29,    285,    0.0,   11.3,   0.00,   0.00, 1004.4,   74.0, -999.0
23-05-2022, 00:36:38,    285,    0.0,   11.4,   0.00,   0.00, 1004.3,   74.0, -999.0
23-05-2022, 00:36:48,    285,    0.0,   11.4,   0.00,   0.00, 1004.3,   74.0, -999.0
23-05-2022, 00:36:58,    285,    0.0,   11.4,   0.00,   0.00, 1004.3,   74.0, -999.0
23-05-2022, 00:37:08,    285,    0.0,   11.4,   0.00,   0.00, 1004.3,   74.0, -999.0
23-05-2022, 00:37:18,    285,    0.0,   11.4,   0.00,   0.00, 1004.3,   74.1, -999.0
23-05-2022, 00:37:28,    285,    0.0,   11.4,   0.00,   0.00, 1004.3,   74.1, -999.0
23-05-2022, 00:37:38,    285,    0.0,   11.4,   0.00,   0.00, 1004.3,   74.0, -999.0
23-05-2022, 00:37:48,    285,    0.0,   11.3,   0.00,   0.00, 1004.3,   73.9, -999.0
23-05-2022, 00:37:58,    284,    0.0,   11.4,   0.00,   0.00, 1004.3,   73.9, -999.0
23-05-2022, 00:38:08,    284,    0.0,   11.3,   0.00,   0.00, 1004.3,   74.1, -999.0
23-05-2022, 00:38:18,    285,    0.0,   11.4,   0.00,   0.00, 1004.3,   74.0, -999.0
23-05-2022, 00:38:28,    285,    0.0,   11.3,   0.00,   0.00, 1004.3,   74.1, -999.0
23-05-2022, 00:38:38,    285,    0.0,   11.2,   0.00,   0.00, 1004.3,   74.2, -999.0
23-05-2022, 00:38:47,    285,    0.0,   11.3,   0.00,   0.00, 1004.3,   74.0, -999.0
23-05-2022, 00:38:58,    285,    0.0,   11.3,   0.00,   0.00, 1004.3,   74.1, -999.0
23-05-2022, 00:39:08,    285,    0.0,   11.2,   0.00,   0.00, 1004.4,   74.1, -999.0
23-05-2022, 00:39:17,    285,    0.0,   11.2,   0.00,   0.00, 1004.3,   74.2, -999.0
23-05-2022, 00:39:27,    285,    0.0,   11.3,   0.00,   0.00, 1004.3,   74.0, -999.0
23-05-2022, 00:39:38,    285,    0.0,   11.3,   0.00,   0.00, 1004.3,   74.3, -999.0
23-05-2022, 00:39:47,    285,    0.0,   11.2,   0.00,   0.00, 1004.3,   74.3, -999.0
23-05-2022, 00:39:57,    285,    0.0,   11.4,   0.00,   0.00, 1004.3,   74.4, -999.0
23-05-2022, 00:40:07,    285,    0.0,   11.3,   0.00,   0.00, 1004.3,   74.2, -999.0
23-05-2022, 00:40:17,    285,    0.0,   11.3,   0.00,   0.00, 1004.3,   74.2, -999.0
23-05-2022, 00:40:27,    285,    0.0,   11.3,   0.00,   0.00, 1004.3,   74.3, -999.0
23-05-2022, 00:40:37,    285,    0.0,   11.3,   0.00,   0.00, 1004.3,   74.4, -999.0
23-05-2022, 00:40:47,    285,    0.0,   11.4,   0.00,   0.00, 1004.3,   74.3, -999.0
23-05-2022, 00:40:57,    284,    0.0,   11.3,   0.00,   0.00, 1004.3,   74.3, -999.0
23-05-2022, 00:41:07,    285,    0.0,   11.3,   0.00,   0.00, 1004.3,   74.3, -999.0
23-05-2022, 00:41:17,    285,    0.0,   11.4,   0.00,   0.00, 1004.3,   74.3, -999.0
23-05-2022, 00:41:27,    285,    0.0,   11.4,   0.00,   0.00, 1004.3,   74.3, -999.0
23-05-2022, 00:41:37,    285,    0.0,   11.2,   0.00,   0.00, 1004.3,   74.3, -999.0
23-05-2022, 00:41:47,    285,    0.0,   11.4,   0.00,   0.00, 1004.3,   74.4, -999.0
23-05-2022, 00:41:56,    285,    0.0,   11.4,   0.00,   0.00, 1004.3,   74.4, -999.0
23-05-2022, 00:42:07,    285,    0.0,   11.4,   0.00,   0.00, 1004.3,   74.3, -999.0
23-05-2022, 00:42:17,    284,    0.0,   11.4,   0.00,   0.00, 1004.3,   74.4, -999.0
23-05-2022, 00:42:26,    285,    0.0,   11.4,   0.00,   0.00, 1004.3,   74.2, -999.0
23-05-2022, 00:42:36,    285,    0.0,   11.3,   0.00,   0.00, 1004.3,   74.3, -999.0
23-05-2022, 00:42:47,    285,    0.0,   11.3,   0.00,   0.00, 1004.3,   74.3, -999.0
23-05-2022, 00:42:56,    285,    0.0,   11.4,   0.00,   0.00, 1004.3,   74.3, -999.0
23-05-2022, 00:43:06,    285,    0.0,   11.3,   0.00,   0.00, 1004.3,   74.3, -999.0
23-05-2022, 00:43:16,    285,    0.0,   11.3,   0.00,   0.00, 1004.3,   74.3, -999.0
23-05-2022, 00:43:26,    285,    0.0,   11.3,   0.00,   0.00, 1004.3,   74.3, -999.0
23-05-2022, 00:43:36,    285,    0.0,   11.4,   0.00,   0.00, 1004.3,   74.3, -999.0
23-05-2022, 00:43:46,    285,    0.0,   11.4,   0.00,   0.00, 1004.3,   74.4, -999.0
23-05-2022, 00:43:56,    285,    0.0,   11.4,   0.00,   0.00, 1004.3,   74.1, -999.0
23-05-2022, 00:44:06,    285,    0.0,   11.4,   0.00,   0.00, 1004.3,   74.3, -999.0
23-05-2022, 00:44:16,    285,    0.0,   11.4,   0.00,   0.00, 1004.3,   74.3, -999.0
23-05-2022, 00:44:26,    285,    0.0,   11.3,   0.00,   0.00, 1004.3,   74.3, -999.0
23-05-2022, 00:44:36,    285,    0.0,   11.3,   0.00,   0.00, 1004.3,   74.2, -999.0
23-05-2022, 00:44:46,    285,    0.0,   11.3,   0.00,   0.00, 1004.3,   74.2, -999.0
23-05-2022, 00:44:56,    285,    0.0,   11.3,   0.00,   0.00, 1004.3,   74.2, -999.0
23-05-2022, 00:45:05,    285,    0.0,   11.3,   0.00,   0.00, 1004.3,   74.2, -999.0
23-05-2022, 00:45:16,    285,    0.0,   11.3,   0.00,   0.00, 1004.3,   74.2, -999.0
23-05-2022, 00:45:26,    285,    0.0,   11.1,   0.00,   0.00, 1004.3,   74.3, -999.0
23-05-2022, 00:45:35,    285,    0.0,   11.3,   0.00,   0.00, 1004.3,   74.2, -999.0
23-05-2022, 00:45:45,    285,    0.0,   11.3,   0.00,   0.00, 1004.3,   74.2, -999.0
23-05-2022, 00:45:55,    285,    0.0,   11.1,   0.00,   0.00, 1004.3,   74.2, -999.0
23-05-2022, 00:46:05,    285,    0.0,   11.2,   0.00,   0.00, 1004.3,   74.2, -999.0
23-05-2022, 00:46:15,    285,    0.0,   11.2,   0.00,   0.00, 1004.3,   74.1, -999.0
23-05-2022, 00:46:25,    285,    0.0,   11.3,   0.00,   0.00, 1004.3,   74.2, -999.0
23-05-2022, 00:46:35,    285,    0.0,   11.3,   0.00,   0.00, 1004.3,   74.2, -999.0